South Bend Regional Airport
KSBN : now visible

Airfield :











YOU CAN JOIN US ON...

 
LOGIN :

Register | Disclaimer

   EN    FR    IT 

 









Legend :    VFR   Marginal VFR   IFR   Intensive IFR   Very Intensive IFR
Visi :
Ceiling :
>= 8 km
>= 3000ft
5 to 8 km
1000 to 3000 ft
1500m to 5 km
500 to 1000 ft
800 to 1500m
200 to 500 ft
< 800m
< 200 ft
Symbols :   Thunderstorms  Fog  Heavy snow  Heavy precipitations  Wind > 20 kt






- Airport Elevation : 799 ft
- IATA code : SBN


KSBN - South Bend Regional

CURRENT METAR :
  • 121654Z VRB04KT 10SM CLR 14/M02 A3047 RMK AO2 SLP321 T01441017 $

EXPIRED METARs :
  • 121554Z 01007G14KT 330V030 10SM CLR 13/M02 A3048 RMK AO2 SLP325 T01331017 $
  • 121454Z 01011G15KT 10SM CLR 12/M01 A3048 RMK AO2 SLP325 T01221011 50006 $

TAF KSBN
Valid from the 12 at 12:00 until the 13 at 12:00 UTC


121120Z 1212/1312 03004KT P6SM SKC
FM121500 35008KT P6SM SCT050
FM130100 00000KT P6SM SKC
KZAU FIR / North America



MET'MAP, your aeronautical weather chart ! - Copyright ORBIFLY December 2007 - Disclaimer

ORBIFLY MET'MAP TEAM :

Programming & Development : Alexandra Zaïnal
Concept & original design : Baudouin d'Aumeries
Assistance for programming : Marc-Olivier Méhu
Technical & hardware support : Manuel Goepfert

Contact : metmap@orbifly.com




SOURCES & CREDITS :

   NOAA       Earth
Advisory